Location: Antioch Baptist Church
(32.6696°N, 85.7327°W)
Time: 00:32:43
(UTC+00:00)

Cosmos 841 Rocket - Pass Details

Date: 14 July 2020
Orbit: 747 x 772 km, 74.0° (Epoch: 12 August)

Event Time Altitude Azimuth Distance (km) Brightness Sun altitude
Rises 09:34:37 0° 343° (NNW) 3,205 7.0 -13.6°
Reaches altitude 10° 09:36:58 10° 344° (NNW) 2,280 6.2 -13.2°
Maximum altitude 09:42:09 86° 72° (ENE) 763 3.5 -12.3°
Drops below altitude 10° 09:47:20 10° 163° (SSE) 2,283 5.8 -11.4°
Sets 09:49:42 0° 164° (SSE) 3,209 6.5 -11.0°
